カタログに戻る

STARLINK-31037

運用中通信VLEO
NORAD 58536·PAYLOAD·🇺🇸 United States

打ち上げ Dec 8, 2023 から Vandenberg Space Force Base

Loading…

次のパス (今後24時間)

TLE

最新Source: CelesTrak SupGP

元期: Sep 15, 2026, 01:52 UTC

1 58536C 23192F   26258.07826389 -.00009957  00000+0 -29413-3 0  2581
2 58536  53.1580 259.2893 0001210  90.6049 317.7296 15.34401946    14

AllMySatでSTARLINK-31037をリアルタイム追跡

Download on the App Store